Weather History for KLRU - April, 2013

Change the Weather History Date:

Wednesday, April 10, 2013

  Actual Average Record
Temperature  
Mean Temperature 49 °F -  
Max Temperature 62 °F 71 °F 86 °F (2012)
Min Temperature 36 °F 43 °F 36 °F (2013)
Degree Days  
Heating Degree Days 16    
Moisture  
Dew Point 23 °F    
Average Humidity 38    
Maximum Humidity 69    
Minimum Humidity 16    
Precipitation  
Precipitation 0.00 in - - ()
Sea Level Pressure  
Sea Level Pressure 29.93 in    
Wind  
Wind Speed 12 mph (West)    
Max Wind Speed 26 mph    
Max Gust Speed 38 mph    
Visibility 10 miles    
Events      
Averages and records for this station are not official NWS values.
T = Trace of Precipitation, MM = Missing Value Source: NWS Daily Summary

Daily Weather History Graph

Daily Weather History Graph

Search for Another Location

Airport or City:

Trip Planner

Search our weather history database for the weather conditions in past years. The results will help you decide how hot, cold, wet, or windy it might be!

Date:

Astronomy

Apr. 10, 2013 Rise Set
Actual Time 6:44 AM MDT 7:33 PM MDT
Civil Twilight 6:19 AM MDT 7:58 PM MDT
Nautical Twilight 5:49 AM MDT 8:28 PM MDT
Astronomical Twilight 5:19 AM MDT 8:58 PM MDT
Moon 6:44 AM MDT (4/10) 8:08 PM MDT (4/10)
Length of Visible Light 13h 39m
Length of Day
12h 49m
New Moon, 0% of the Moon is Illuminated
Apr 10
New Moon
Apr 18
First Quarter
Apr 25
Full
May 2
Last Quarter
May 9
New

Hourly Weather History & Observations

Time (MDT) Temp. Windchill Dew Point Humidity Pressure Visibility Wind Dir Wind Speed Gust Speed Precip Events Conditions
12:15 AM 46.4 °F 40.4 °F 28.0 °F 49% 29.90 in 10.0 mi West 13.8 mph - N/A   Scattered Clouds
12:35 AM 46.8 °F - 28.0 °F 48% 29.90 in 10.0 mi West 12.7 mph - N/A   Scattered Clouds
12:55 AM 46.8 °F - 27.7 °F 47% 29.91 in 10.0 mi West 15.0 mph - N/A   Clear
1:15 AM 46.2 °F 41.7 °F 28.2 °F 50% 29.91 in 10.0 mi West 9.2 mph - N/A   Clear
1:55 AM 45.3 °F 41.1 °F 27.3 °F 49% 29.91 in 10.0 mi West 8.1 mph - N/A   Clear
2:15 AM 45.1 °F 39.5 °F 27.0 °F 49% 29.90 in 10.0 mi West 11.5 mph - N/A   Clear
2:35 AM 43.9 °F 38.3 °F 26.6 °F 51% 29.90 in 10.0 mi West 10.4 mph - N/A   Clear
2:55 AM 43.2 °F 38.4 °F 26.1 °F 51% 29.90 in 10.0 mi West 8.1 mph - N/A   Clear
3:15 AM 42.6 °F 37.2 °F 25.9 °F 52% 29.90 in 10.0 mi WSW 9.2 mph - N/A   Clear
3:35 AM 42.6 °F 37.2 °F 26.2 °F 52% 29.90 in 10.0 mi West 9.2 mph - N/A   Clear
3:55 AM 40.6 °F 35.4 °F 26.4 °F 57% 29.90 in 10.0 mi West 8.1 mph - N/A   Clear
4:15 AM 40.5 °F 35.1 °F 27.3 °F 59% 29.91 in 10.0 mi West 8.1 mph - N/A   Scattered Clouds
4:35 AM 40.1 °F 34.7 °F 27.3 °F 60% 29.91 in 10.0 mi WSW 8.1 mph - N/A   Overcast
4:55 AM 39.7 °F 33.7 °F 27.5 °F 62% 29.92 in 10.0 mi WSW 9.2 mph - N/A   Overcast
5:15 AM 39.2 °F 33.6 °F 28.6 °F 66% 29.92 in 10.0 mi WSW 8.1 mph - N/A   Scattered Clouds
5:35 AM 38.7 °F 32.4 °F 28.0 °F 66% 29.92 in 10.0 mi West 9.2 mph - N/A   Clear
5:55 AM 38.3 °F 32.5 °F 28.4 °F 68% 29.93 in 10.0 mi West 8.1 mph - N/A   Clear
6:15 AM 39.0 °F 33.4 °F 27.3 °F 63% 29.93 in 10.0 mi West 8.1 mph - N/A   Scattered Clouds
6:35 AM 37.6 °F 33.1 °F 27.5 °F 67% 29.94 in 10.0 mi West 5.8 mph - N/A   Scattered Clouds
6:55 AM 36.9 °F 30.7 °F 27.5 °F 69% 29.94 in 10.0 mi WSW 8.1 mph - N/A   Scattered Clouds
7:15 AM 36.7 °F 31.2 °F 27.5 °F 69% 29.95 in 10.0 mi West 6.9 mph - N/A   Clear
7:35 AM 38.5 °F 36.1 °F 28.6 °F 68% 29.95 in 10.0 mi West 3.5 mph - N/A   Clear
7:55 AM 39.6 °F - 29.1 °F 66% 29.96 in 10.0 mi Calm Calm - N/A   Clear
8:15 AM 41.7 °F - 29.3 °F 61% 29.97 in 10.0 mi Calm Calm - N/A   Clear
8:35 AM 44.4 °F 42.9 °F 29.1 °F 55% 29.97 in 10.0 mi WNW 3.5 mph - N/A   Clear
8:55 AM 48.0 °F - 28.4 °F 47% 29.97 in 10.0 mi West 8.1 mph - N/A   Scattered Clouds
9:15 AM 49.8 °F - 28.0 °F 43% 29.97 in 10.0 mi West 12.7 mph - N/A   Clear
9:35 AM 51.1 °F - 28.2 °F 41% 29.97 in 10.0 mi West 10.4 mph - N/A   Clear
9:55 AM 52.7 °F - 26.1 °F 36% 29.97 in 10.0 mi WSW 15.0 mph 19.6 mph N/A   Clear
10:15 AM 53.8 °F - 25.5 °F 34% 29.96 in 10.0 mi West 15.0 mph 18.4 mph N/A   Clear
10:35 AM 54.7 °F - 24.3 °F 31% 29.96 in 10.0 mi West 13.8 mph 18.4 mph N/A   Clear
11:15 AM 55.6 °F - 23.4 °F 29% 29.95 in 10.0 mi SW 10.4 mph 16.1 mph N/A   Clear
11:35 AM 55.8 °F - 21.7 °F 27% 29.95 in 10.0 mi West 6.9 mph 19.6 mph N/A   Clear
11:55 AM 56.5 °F - 22.3 °F 27% 29.95 in 10.0 mi SW 9.2 mph - N/A   Clear
12:15 PM 57.7 °F - 21.4 °F 24% 29.94 in 10.0 mi WSW 8.1 mph 21.9 mph N/A   Clear
12:35 PM 59.5 °F - 21.7 °F 23% 29.94 in 10.0 mi SW 12.7 mph 18.4 mph N/A   Scattered Clouds
12:55 PM 58.1 °F - 21.0 °F 24% 29.93 in 10.0 mi WSW 15.0 mph 21.9 mph N/A   Scattered Clouds
1:15 PM 59.2 °F - 21.0 °F 23% 29.92 in 10.0 mi West 17.3 mph 20.7 mph N/A   Scattered Clouds
1:35 PM 60.1 °F - 20.1 °F 21% 29.91 in 10.0 mi WSW 11.5 mph 19.6 mph N/A   Scattered Clouds
1:55 PM 60.1 °F - 20.1 °F 21% 29.91 in 10.0 mi West 10.4 mph 24.2 mph N/A   Scattered Clouds
2:15 PM 61.3 °F - 18.1 °F 19% 29.90 in 10.0 mi West 13.8 mph 19.6 mph N/A   Mostly Cloudy
2:35 PM 62.4 °F - 16.2 °F 17% 29.90 in 10.0 mi West 21.9 mph 29.9 mph N/A   Overcast
2:55 PM 61.7 °F - 15.1 °F 16% 29.89 in 10.0 mi West 25.3 mph 35.7 mph N/A   Mostly Cloudy
3:15 PM 62.6 °F - 16.5 °F 17% 29.88 in 10.0 mi West 24.2 mph 33.4 mph N/A   Scattered Clouds
3:35 PM 62.4 °F - 16.2 °F 17% 29.88 in 10.0 mi West 19.6 mph 38.0 mph N/A   Scattered Clouds
3:55 PM 60.8 °F - 16.9 °F 18% 29.88 in 10.0 mi West 19.6 mph 35.7 mph N/A   Scattered Clouds
4:15 PM 60.8 °F - 16.2 °F 18% 29.88 in 10.0 mi West 21.9 mph 29.9 mph N/A   Scattered Clouds
4:35 PM 61.2 °F - 16.2 °F 17% 29.88 in 10.0 mi WSW 19.6 mph 29.9 mph N/A   Scattered Clouds
4:55 PM 61.7 °F - 16.5 °F 17% 29.88 in 10.0 mi West 24.2 mph 36.8 mph N/A   Scattered Clouds
5:15 PM 61.0 °F - 17.1 °F 18% 29.88 in 10.0 mi West 19.6 mph 34.5 mph N/A   Scattered Clouds
5:35 PM 60.6 °F - 18.0 °F 19% 29.88 in 10.0 mi West 26.5 mph 34.5 mph N/A   Scattered Clouds
5:55 PM 60.3 °F - 18.3 °F 20% 29.88 in 10.0 mi West 26.5 mph 33.4 mph N/A   Scattered Clouds
6:15 PM 59.2 °F - 18.7 °F 21% 29.88 in 10.0 mi West 26.5 mph 34.5 mph N/A   Clear
6:35 PM 58.3 °F - 19.2 °F 22% 29.88 in 10.0 mi WSW 24.2 mph 32.2 mph N/A   Clear
6:55 PM 57.6 °F - 19.8 °F 23% 29.90 in 10.0 mi West 18.4 mph 26.5 mph N/A   Clear
7:15 PM 56.7 °F - 20.3 °F 24% 29.90 in 10.0 mi West 19.6 mph 25.3 mph N/A   Scattered Clouds
7:35 PM 55.9 °F - 21.2 °F 26% 29.91 in 10.0 mi West 17.3 mph 25.3 mph N/A   Scattered Clouds
7:55 PM 55.4 °F - 21.6 °F 27% 29.92 in 10.0 mi West 18.4 mph 25.3 mph N/A   Scattered Clouds
8:15 PM 54.5 °F - 21.6 °F 28% 29.93 in 10.0 mi West 17.3 mph - N/A   Mostly Cloudy
8:55 PM 54.5 °F - 22.1 °F 28% 29.94 in 10.0 mi West 16.1 mph 26.5 mph N/A   Overcast
9:15 PM 54.1 °F - 22.1 °F 29% 29.95 in 10.0 mi West 17.3 mph 21.9 mph N/A   Overcast
9:35 PM 53.8 °F - 23.0 °F 30% 29.96 in 10.0 mi WNW 15.0 mph 24.2 mph N/A   Overcast
9:55 PM 53.2 °F - 23.5 °F 32% 29.97 in 10.0 mi WNW 13.8 mph 20.7 mph N/A   Overcast
10:15 PM 52.7 °F - 23.4 °F 32% 29.99 in 10.0 mi NW 13.8 mph - N/A   Overcast
10:35 PM 51.4 °F - 21.2 °F 31% 29.99 in 10.0 mi North 13.8 mph - N/A   Mostly Cloudy
10:55 PM 50.2 °F - 21.0 °F 32% 29.99 in 10.0 mi North 10.4 mph - N/A   Scattered Clouds
11:15 PM 49.5 °F - 20.5 °F 32% 29.99 in 10.0 mi North 12.7 mph 18.4 mph N/A   Clear
11:35 PM 49.1 °F - 19.4 °F 31% 29.99 in 10.0 mi North 12.7 mph - N/A   Clear
11:55 PM 48.4 °F - 18.9 °F 31% 29.99 in 10.0 mi North 11.5 mph 17.3 mph N/A   Clear